Date,TemperatureHighF,TemperatureAvgF,TemperatureLowF,DewpointHighF,DewpointAvgF,DewpointLowF,HumidityHigh,HumidityAvg,HumidityLow,PressureMaxIn,PressureMinIn,WindSpeedMaxMPH,WindSpeedAvgMPH,GustSpeedMaxMPH,PrecipitationSumIn
2013-2-15,63,51,38,40,36,34,88,58,37,29.67,29.53,5,2,14,0.02
2013-2-16,39,37,34,35,30,17,93,78,49,29.66,29.44,3,1,11,0.09
2013-2-17,35,30,26,17,11,5,60,44,29,29.83,29.44,11,5,33,0.01
2013-2-18,46,30,22,34,11,0,92,48,16,29.94,29.54,9,2,21,0.11
2013-2-19,47,40,35,42,33,21,92,76,46,29.92,29.66,4,1,14,0.06
2013-2-20,40,34,26,21,14,7,51,43,34,30.09,29.77,8,4,22,0.00
2013-2-21,41,32,25,16,13,9,56,46,33,30.27,30.06,7,3,19,0.00
2013-2-22,36,33,30,31,23,16,90,68,55,30.34,30.16,2,0,8,0.04
2013-2-23,47,40,33,44,38,31,94,93,90,30.17,29.80,2,1,8,0.14
2013-2-24,53,44,33,42,32,19,94,66,32,30.16,29.84,9,3,23,0.00
2013-2-25,51,36,28,26,22,19,83,57,34,30.29,30.16,3,1,11,0.00
2013-2-26,45,36,26,44,32,23,95,86,68,30.30,29.66,3,1,9,0.60
2013-2-27,59,48,41,44,38,31,95,72,43,29.75,29.55,6,2,17,0.02
2013-2-28,51,44,40,37,29,20,84,59,32,29.78,29.67,6,2,21,0.00
2013-3-1,46,42,37,30,27,22,68,56,47,29.92,29.76,5,3,14,0.00
2013-3-2,40,35,31,25,21,18,67,56,47,29.93,29.85,6,3,14,0.00
2013-3-3,39,34,29,21,18,17,65,52,43,29.95,29.83,6,4,19,0.00
2013-3-4,43,35,26,19,16,13,65,46,32,30.08,29.94,7,4,24,0.00
2013-3-5,49,36,23,31,22,15,82,58,27,30.14,29.89,3,1,8,0.00
2013-3-6,41,38,34,36,33,28,93,85,61,30.01,29.67,8,4,27,1.13
2013-3-7,50,43,36,28,25,21,68,50,36,30.19,30.01,8,3,20,0.00
2013-3-8,48,42,35,27,24,20,65,48,39,30.30,30.16,8,4,24,0.00
2013-3-9,65,46,33,31,23,9,75,45,12,30.39,30.29,4,1,13,0.00
2013-3-10,63,45,28,37,24,2,86,53,10,30.41,30.30,3,1,9,0.00
2013-3-11,60,50,42,48,43,37,92,78,64,30.33,30.01,4,2,11,0.00
2013-3-12,61,52,43,56,45,29,95,76,49,30.04,29.75,6,3,16,0.50
2013-3-13,52,43,30,35,24,13,90,51,23,30.10,29.93,7,3,19,0.00
2013-3-14,47,39,32,19,15,9,53,39,22,30.17,30.05,9,4,26,0.00
2013-3-15,59,43,28,31,21,14,69,44,20,30.14,29.83,4,1,15,0.00
2013-3-16,56,44,36,41,35,29,80,70,50,29.99,29.71,4,1,14,0.00
2013-3-17,42,38,34,32,28,22,88,69,52,30.34,29.98,4,1,12,0.00
2013-3-18,41,38,36,37,29,19,93,71,50,30.40,29.92,3,1,9,0.27
2013-3-19,60,46,38,43,31,0,94,65,12,29.96,29.76,7,2,22,0.01
2013-3-20,55,43,31,33,16,4,92,36,13,30.09,29.85,6,2,20,0.72
2013-3-21,44,36,29,26,14,5,69,41,26,30.03,29.86,6,4,17,0.00
2013-3-22,48,38,29,19,15,8,52,39,26,30.14,30.00,7,3,23,0.00
2013-3-23,55,40,26,24,21,18,78,49,23,30.16,30.04,6,2,17,0.00
2013-3-24,44,37,28,31,24,20,85,59,40,30.14,29.81,3,1,8,0.00
2013-3-25,36,34,32,33,32,30,94,90,82,29.82,29.64,2,1,7,0.83
2013-3-26,55,42,29,34,29,21,94,66,29,30.09,29.82,5,2,14,0.02
2013-3-27,52,45,39,31,27,23,64,51,36,30.24,30.09,7,4,20,0.00
2013-3-28,52,44,36,32,28,23,68,53,35,30.34,30.21,6,3,17,0.00
2013-3-29,60,47,36,30,27,22,65,46,25,30.38,30.26,5,2,16,0.00
2013-3-30,63,48,35,35,30,24,83,54,23,30.37,30.25,3,1,7,0.00
2013-3-31,56,48,40,49,42,29,93,78,56,30.27,29.86,4,1,11,0.02
2013-4-1,67,51,40,50,36,18,96,61,31,30.11,29.83,8,2,22,0.01
2013-4-2,52,42,28,22,15,8,70,36,18,30.30,30.11,6,3,18,0.00
2013-4-3,53,42,27,20,13,3,68,34,15,30.52,30.30,7,3,23,0.00
2013-4-4,53,40,25,34,19,-1,85,46,12,30.57,30.24,3,1,8,0.01
2013-4-5,69,51,38,39,29,14,92,53,14,30.24,29.93,5,2,17,0.15
2013-4-6,59,47,39,34,21,7,67,36,17,30.48,30.17,4,2,14,0.00
2013-4-7,66,52,39,44,40,31,85,64,43,30.44,30.12,4,2,11,0.00
2013-4-8,80,62,49,52,46,40,81,59,27,30.21,30.09,5,1,7,0.00
2013-4-9,90,72,60,54,51,47,67,49,24,30.19,30.04,6,2,15,0.00
2013-4-10,95,77,63,56,53,48,67,47,21,30.08,29.90,5,1,14,0.00
2013-4-11,83,67,54,62,56,50,90,71,45,30.03,29.89,3,1,11,0.00
2013-4-12,62,54,35,58,52,33,96,92,84,30.19,29.82,4,1,18,0.00
2013-4-13,71,56,42,53,43,34,96,65,30,30.18,29.97,4,2,14,1.42
2013-4-14,69,56,42,46,39,29,94,59,23,30.36,30.17,5,1,14,0.00
2013-4-15,65,57,52,50,48,43,88,72,56,30.54,30.35,2,1,7,0.01
2013-4-16,76,62,49,57,52,46,90,71,50,30.56,30.34,5,1,11,0.00
2013-4-17,77,65,56,61,56,52,93,74,50,30.47,30.34,2,1,8,0.00
2013-4-18,79,65,58,63,57,52,91,76,50,30.48,30.25,4,2,12,0.01
2013-4-19,78,66,53,65,60,50,94,82,62,30.25,29.80,7,2,17,0.58
2013-4-20,64,54,48,51,33,22,92,48,21,30.56,30.00,6,3,19,0.11
2013-4-21,60,48,41,32,25,19,69,41,24,30.84,30.56,4,2,12,0.00
2013-4-22,62,50,38,39,36,31,79,60,38,30.83,30.64,2,1,8,0.14
2013-4-23,69,52,44,45,41,38,89,68,40,30.65,30.37,3,1,9,0.00
2013-4-24,74,58,42,56,50,40,95,74,52,30.37,30.02,5,1,10,0.00
2013-4-25,72,56,47,54,35,22,79,48,21,30.53,30.17,8,2,27,0.01
2013-4-26,76,56,41,43,36,27,90,52,19,30.68,30.52,4,1,11,0.00
2013-4-27,76,57,40,51,38,25,92,56,20,30.67,30.52,2,1,7,0.00
2013-4-28,70,58,44,50,39,29,88,53,24,30.53,30.39,3,1,8,0.00
2013-4-29,60,56,53,58,53,40,96,89,53,30.41,30.30,2,1,5,0.35
2013-4-30,62,58,53,57,53,47,96,85,65,30.52,30.19,2,0,5,0.12
2013-5-1,79,60,50,48,43,35,80,57,23,30.67,30.52,2,1,7,0.00
2013-5-2,79,58,48,49,46,44,85,67,31,30.68,30.55,2,0,6,0.00
2013-5-3,69,56,46,49,44,40,93,64,36,30.63,30.54,2,1,8,0.00
2013-5-4,77,58,48,47,44,39,83,63,31,30.58,30.42,2,1,10,0.00
2013-5-5,72,55,47,47,42,39,79,64,37,30.50,30.39,2,1,7,0.00
2013-5-6,64,56,50,57,52,44,92,84,74,30.42,30.30,1,1,11,0.01
2013-5-7,64,60,58,61,58,56,96,94,92,30.32,30.17,2,1,8,0.64
2013-5-8,73,62,56,59,56,52,95,83,54,30.24,30.16,2,0,8,0.00
2013-5-9,81,63,52,61,55,50,96,78,44,30.22,30.14,3,1,10,0.00
2013-5-10,87,70,54,66,58,53,97,70,39,30.24,30.08,5,1,17,0.25
2013-5-11,84,68,63,67,63,58,96,85,50,30.17,29.93,6,1,16,0.43
2013-5-12,68,61,52,62,40,24,96,52,21,30.26,29.95,7,3,21,0.04
2013-5-13,63,52,42,37,29,18,80,46,18,30.39,30.26,8,2,22,0.00
2013-5-14,66,52,38,46,33,24,82,52,23,30.44,30.29,4,1,14,0.00
2013-5-15,84,67,55,63,54,46,87,66,42,30.31,29.90,2,0,8,0.00
2013-5-16,86,77,68,63,59,56,71,55,40,30.13,29.94,6,2,15,0.00
2013-5-17,85,71,57,58,51,42,90,54,24,30.39,30.12,3,1,8,0.00
2013-5-18,69,63,59,58,54,50,93,73,58,30.48,30.39,1,0,5,0.00
2013-5-19,79,65,60,67,62,58,96,89,63,30.45,30.32,1,0,5,0.01
2013-5-20,88,72,64,70,66,63,97,83,54,30.36,30.20,2,0,7,0.00
2013-5-21,91,74,66,71,67,64,96,80,50,30.23,30.09,2,0,8,0.00
2013-5-22,89,77,68,73,69,64,97,80,55,30.15,30.06,4,1,16,0.00
2013-5-23,84,73,65,71,67,61,97,83,61,30.13,29.98,3,1,8,0.37
2013-5-24,65,58,52,64,50,34,97,76,51,30.36,29.95,8,4,24,0.04
2013-5-25,69,56,46,39,35,30,65,46,25,30.38,30.29,8,4,22,0.00
2013-5-26,77,61,50,45,36,30,74,43,19,30.43,30.33,6,2,14,0.00
2013-5-27,73,63,50,52,46,37,80,58,33,30.51,30.40,2,0,5,0.00
2013-5-28,83,67,58,66,60,51,94,79,55,30.44,30.30,1,0,4,0.05
2013-5-29,90,77,66,72,67,64,92,72,46,30.34,30.28,3,0,9,0.00
2013-5-30,95,81,70,72,67,63,84,65,38,30.41,30.32,2,0,5,0.00
2013-5-31,97,80,67,71,67,63,91,68,34,30.38,30.25,2,0,7,0.00
2013-6-1,100,80,67,72,68,63,87,67,37,30.27,30.14,2,0,7,0.00
2013-6-2,88,78,69,72,68,64,96,72,54,30.15,30.04,6,1,13,0.25
2013-6-3,82,71,66,72,68,62,97,90,68,30.15,30.03,4,0,15,0.78
2013-6-4,88,69,57,62,51,42,88,56,27,30.35,30.15,3,1,11,0.00
2013-6-5,89,69,56,59,55,47,94,65,32,30.41,30.29,1,0,5,0.00
2013-6-6,76,68,62,65,60,54,96,76,60,30.33,30.10,1,0,7,0.20
2013-6-7,71,69,66,71,63,53,98,83,59,30.10,29.77,4,1,13,2.16
2013-6-8,90,72,64,66,60,49,93,67,41,30.31,29.88,3,1,10,0.00
2013-6-9,90,73,64,71,65,60,95,78,52,30.43,30.30,1,0,4,0.00
2013-6-10,80,73,69,75,70,66,97,92,81,30.34,30.02,2,0,10,0.63
2013-6-11,87,76,67,69,64,60,97,70,48,30.06,29.97,6,2,17,0.00
2013-6-12,93,78,67,71,67,63,88,70,43,30.08,30.00,5,1,14,0.00
2013-6-13,91,75,69,73,68,58,95,80,50,30.04,29.66,10,1,29,0.47
2013-6-14,83,70,59,59,55,50,92,62,33,30.18,29.78,6,3,19,0.07
2013-6-15,89,73,60,60,56,50,90,60,30,30.29,30.17,4,1,11,0.00
2013-6-16,83,74,63,69,64,57,90,74,56,30.25,30.09,3,0,7,0.00
2013-6-17,90,78,69,74,68,64,87,73,53,30.18,30.09,3,0,8,0.00
2013-6-18,79,71,63,72,68,62,97,88,72,30.15,30.00,3,0,6,0.65
2013-6-19,76,69,63,70,62,54,98,79,51,30.30,29.24,5,1,11,0.94
2013-6-20,88,75,62,66,58,52,95,59,36,29.97,29.25,6,1,10,0.11
2013-6-21,91,72,58,64,58,49,92,65,31,30.00,29.92,1,0,6,0.00
2013-6-22,93,76,63,69,65,61,96,72,42,29.95,29.83,2,0,7,0.00
2013-6-23,94,75,67,76,70,64,94,84,56,29.89,29.75,1,0,5,0.02
2013-6-24,95,79,71,77,72,65,96,80,50,29.81,29.67,6,0,17,0.01
2013-6-25,102,82,69,75,70,62,97,70,36,29.73,29.56,8,1,18,0.06
2013-6-26,93,78,68,76,71,66,98,81,57,29.62,29.48,4,0,10,0.01
2013-6-27,86,77,69,76,71,68,96,84,71,29.51,29.28,2,0,10,0.02
2013-6-28,90,76,70,75,71,68,98,84,57,29.31,29.16,3,0,11,0.08
2013-6-29,95,78,67,74,70,61,99,77,41,29.38,29.20,2,0,8,0.01
2013-6-30,86,77,72,76,73,70,97,90,72,29.54,29.37,1,0,6,0.22
2013-7-1,85,77,72,76,71,63,97,80,61,29.68,29.53,2,0,6,0.00
2013-7-2,84,77,71,75,72,69,96,87,71,29.88,29.68,2,0,6,0.25
2013-7-3,91,77,71,78,71,66,94,82,62,29.94,29.86,2,0,4,0.13
2013-7-4,95,82,72,77,74,69,96,76,54,29.97,29.88,2,1,6,0.00
2013-7-5,99,84,74,76,73,71,94,72,43,29.93,29.83,2,0,8,0.00
2013-7-6,101,86,76,77,73,71,90,69,43,29.89,29.76,3,0,10,0.00
2013-7-7,100,82,74,76,72,68,90,73,46,29.81,29.68,7,1,22,0.00
2013-7-8,95,79,72,75,70,66,93,75,41,29.80,29.73,4,1,12,0.01
2013-7-9,92,80,73,78,73,69,93,80,59,29.80,29.70,2,0,6,0.00
2013-7-10,97,81,73,79,74,70,93,82,49,29.72,29.55,2,0,12,0.01
2013-7-11,89,78,73,74,71,68,95,81,56,29.62,29.53,2,0,8,0.02
2013-7-12,76,71,67,72,69,65,97,92,72,29.70,29.57,3,1,11,0.97
2013-7-13,91,78,69,77,72,68,98,83,58,29.99,29.69,2,0,5,0.01
2013-7-14,98,82,74,81,74,71,99,80,46,30.04,29.97,1,0,5,0.00
2013-7-15,101,84,72,80,74,70,97,76,44,30.00,29.87,3,0,8,0.00
2013-7-16,101,85,77,77,74,68,93,70,44,29.93,29.85,3,0,8,0.00
2013-7-17,102,85,73,79,73,69,95,72,40,29.91,29.77,1,0,4,0.00
2013-7-18,100,85,76,81,77,73,93,77,52,29.80,29.67,2,0,6,0.00
2013-7-19,102,86,79,79,76,71,91,73,47,29.86,29.55,3,0,10,0.00
2013-7-20,101,85,77,77,75,69,92,73,41,29.80,29.68,4,1,15,0.00
2013-7-21,90,79,70,76,72,68,99,82,56,29.86,29.78,7,0,20,1.61
2013-7-22,95,81,74,78,75,72,99,85,55,29.84,29.67,1,0,6,0.01
2013-7-23,91,79,73,75,72,68,99,79,50,29.68,29.54,5,1,14,0.19
2013-7-24,87,78,71,71,67,57,91,71,55,29.83,29.59,3,1,8,0.00
2013-7-25,85,71,63,66,60,54,80,67,51,29.95,29.83,3,1,11,0.00
2013-7-26,88,75,68,67,63,61,82,68,47,30.01,29.93,2,1,8,0.00
2013-7-27,90,76,67,72,68,32,96,79,50,29.98,29.84,2,0,5,0.00
2013-7-28,89,76,72,75,70,66,99,83,59,29.89,29.79,3,0,8,0.33
2013-7-29,86,74,65,72,59,52,99,64,34,30.07,29.88,6,1,14,0.01
2013-7-30,87,72,62,65,60,54,91,69,37,30.15,30.06,3,0,9,0.00
2013-7-31,82,74,66,70,67,63,97,81,61,30.07,29.94,1,0,4,0.00
2013-8-1,91,74,68,76,71,66,99,91,59,29.94,29.72,2,0,8,0.28
2013-8-2,90,76,67,72,68,64,99,78,51,29.88,29.75,2,0,6,0.00
2013-8-3,78,71,67,71,67,63,97,87,67,29.89,29.83,4,0,8,0.04
2013-8-4,84,72,63,66,59,51,98,66,38,29.94,29.80,5,2,14,0.00
2013-8-5,83,69,59,63,58,54,94,70,44,30.02,29.93,2,0,7,0.00
2013-8-6,74,70,65,68,66,61,95,87,80,30.01,29.93,1,0,4,0.01
2013-8-7,86,75,69,74,71,67,98,87,67,30.00,29.91,2,0,5,0.01
2013-8-8,90,79,74,77,74,71,94,83,63,29.96,29.90,3,0,9,0.01
2013-8-9,92,82,75,80,76,73,99,84,62,30.37,30.11,4,0,11,0.22
2013-8-10,92,77,69,76,69,62,99,78,40,30.35,30.20,2,0,6,0.00
2013-8-11,92,76,68,72,69,66,99,81,49,30.40,30.29,2,0,5,0.00
2013-8-12,91,78,70,75,72,69,99,83,53,30.30,29.95,2,0,5,0.00
2013-8-13,92,77,71,80,72,67,99,85,59,30.26,29.80,4,1,11,0.24
2013-8-14,80,69,61,71,54,46,99,60,38,30.28,29.97,6,2,17,0.01
2013-8-15,86,67,56,57,54,47,94,66,31,30.37,30.27,2,0,7,0.00
2013-8-16,82,68,57,66,57,50,99,71,41,30.39,30.32,1,0,5,0.00
2013-8-17,86,70,59,64,61,57,98,74,38,30.46,30.38,2,0,8,0.00
2013-8-18,74,70,66,66,63,59,93,81,62,30.41,30.34,3,0,9,0.02
2013-8-19,84,70,63,68,65,62,99,85,57,30.37,30.25,2,0,7,0.01
2013-8-20,92,75,63,72,68,63,99,82,49,30.35,30.27,2,0,5,0.00
2013-8-21,92,78,69,76,72,68,99,83,55,30.38,30.25,2,0,5,0.01
2013-8-22,92,79,70,74,70,66,99,77,45,30.28,30.10,4,1,10,0.01
2013-8-23,79,73,63,69,64,55,91,76,56,30.29,30.11,3,1,8,0.00
2013-8-24,91,72,62,65,61,55,94,71,33,30.53,30.29,2,1,8,0.00
2013-8-25,87,70,59,68,58,45,99,70,24,30.62,30.46,2,0,5,0.00
2013-8-26,95,75,63,66,61,56,81,64,32,30.48,30.17,3,0,8,0.00
2013-8-27,92,79,70,73,69,65,94,74,51,30.17,30.05,3,0,9,0.04
2013-8-28,85,76,71,75,72,69,99,87,64,30.09,30.00,4,1,11,0.07
2013-8-29,91,77,71,73,71,67,99,84,49,30.22,30.01,2,0,9,0.02
2013-8-30,90,76,67,73,70,66,98,82,55,30.22,30.07,2,0,8,0.00
2013-8-31,91,79,70,75,72,69,98,80,58,30.09,29.97,2,0,7,0.00
2013-9-1,92,80,70,76,72,68,96,79,56,30.03,29.93,1,0,5,0.00
2013-9-2,96,81,71,77,72,67,99,78,41,29.98,29.89,3,0,10,0.02
2013-9-3,88,79,71,73,64,55,91,62,34,30.14,29.89,4,2,12,0.00
2013-9-4,89,71,60,63,58,51,86,64,40,30.26,29.86,3,1,8,0.00
2013-9-5,85,74,62,62,59,50,91,62,38,29.98,29.85,5,2,14,0.00
2013-9-6,82,67,59,54,49,44,82,54,30,30.12,29.98,3,1,9,0.00
2013-9-7,86,68,55,63,58,53,97,72,44,30.01,29.80,2,0,8,0.00
2013-9-8,87,80,72,69,65,54,78,60,46,29.92,29.72,3,1,10,0.01
2013-9-9,84,71,64,69,59,51,87,65,52,30.07,29.92,2,0,8,0.00
2013-9-10,92,79,70,75,72,68,96,81,56,30.04,29.94,2,0,6,0.00
2013-9-11,94,81,72,77,74,71,99,80,51,30.00,29.86,2,0,6,0.00
2013-9-12,91,75,69,74,70,65,99,86,54,29.86,29.59,4,0,13,1.25
2013-9-13,81,70,65,69,59,47,99,72,31,29.77,29.54,6,2,17,0.00
2013-9-14,76,62,54,54,48,44,91,63,34,30.03,29.77,4,2,13,0.00
2013-9-15,77,63,50,59,54,49,99,76,43,30.11,29.95,2,0,8,0.00
2013-9-16,75,66,58,61,57,52,93,76,47,30.09,29.89,3,1,8,0.00
2013-9-17,74,59,51,56,46,40,87,63,33,30.30,30.09,3,1,13,0.00
2013-9-18,76,57,47,54,48,38,99,75,34,30.22,30.06,2,0,5,0.00
2013-9-19,79,62,50,59,55,49,99,79,48,30.07,29.94,3,0,9,0.00
2013-9-20,80,66,54,62,58,54,99,79,52,29.96,29.82,2,0,6,0.00
2013-9-21,78,68,60,68,63,58,99,85,62,29.85,29.53,5,0,17,0.50
2013-9-22,72,65,59,63,55,48,99,73,46,29.79,29.56,4,2,11,0.01
2013-9-23,71,59,50,51,45,40,94,61,39,29.95,29.79,4,2,14,0.00
2013-9-24,80,58,46,54,48,41,99,74,33,29.97,29.79,3,1,11,0.00
2013-9-25,75,58,48,58,52,48,99,82,52,29.84,29.74,2,0,6,0.00
2013-9-26,78,62,54,62,56,51,99,83,46,29.93,29.78,1,0,5,0.00
2013-9-27,71,62,56,62,57,55,99,85,61,30.11,29.93,1,0,6,0.00
2013-9-28,75,63,56,59,56,52,98,78,47,30.18,30.08,2,0,5,0.00
2013-9-29,76,61,52,60,56,52,99,83,51,30.08,29.92,2,0,5,0.00
2013-9-30,74,60,51,60,55,51,99,83,52,29.96,29.84,2,0,5,0.00
2013-10-1,78,66,55,66,60,54,99,83,56,29.93,29.82,4,0,7,0.00
2013-10-2,84,70,59,64,61,58,99,76,42,29.94,29.83,4,1,11,0.00
2013-10-3,78,69,60,69,64,60,99,85,66,29.98,29.89,1,0,4,0.00
2013-10-4,85,71,60,70,66,60,99,85,56,29.95,29.85,2,0,6,0.00
2013-10-5,84,73,66,71,67,66,99,83,58,29.94,29.85,2,0,5,0.00
2013-10-6,86,74,66,73,68,65,99,83,58,29.89,29.79,2,1,8,0.00
2013-10-7,76,67,55,74,66,51,99,94,76,29.91,29.65,8,1,21,0.34
2013-10-8,66,59,49,51,49,46,97,71,51,30.14,29.90,3,1,11,0.00
2013-10-9,63,60,57,54,52,47,91,73,58,30.17,30.06,2,1,13,0.01
2013-10-10,59,57,55,58,56,54,99,99,91,30.06,29.82,3,2,11,2.55
2013-10-11,65,61,58,64,61,58,99,99,95,29.85,29.77,3,2,12,0.94
2013-10-12,83,64,61,64,61,56,99,92,47,29.98,29.79,2,1,10,0.63
2013-10-13,67,62,59,61,58,54,99,90,76,30.15,29.97,2,0,8,0.22
2013-10-14,69,60,52,57,55,52,99,83,63,30.15,30.05,2,0,8,0.00
2013-10-15,70,58,48,58,52,48,99,83,47,30.06,29.89,1,0,4,0.00
2013-10-16,68,63,60,64,61,58,99,93,84,29.89,29.72,1,0,4,0.00
2013-10-17,74,65,59,67,63,59,99,92,71,30.16,29.58,6,0,14,0.01
2013-10-18,66,58,48,60,46,41,96,67,40,30.17,29.94,6,2,18,0.00
2013-10-19,65,55,46,61,52,46,99,90,57,30.16,29.93,4,0,8,0.02
2013-10-20,63,53,43,53,39,32,95,62,33,30.25,29.99,6,2,17,0.00
2013-10-21,69,53,41,51,45,39,99,77,37,30.31,30.12,2,0,6,0.00
2013-10-22,64,56,48,52,49,42,94,78,55,30.13,29.97,4,1,11,0.00
2013-10-23,57,51,45,47,38,33,97,64,44,30.02,29.79,5,1,13,0.07
2013-10-24,53,46,40,37,31,22,85,59,34,30.28,30.02,6,2,17,0.00
2013-10-25,56,44,37,34,31,28,79,61,38,30.48,30.28,6,2,14,0.00
2013-10-26,60,46,32,35,31,27,90,60,30,30.46,30.08,2,0,11,0.00
2013-10-27,60,50,40,39,35,31,93,60,35,30.31,30.09,4,1,13,0.00
2013-10-28,62,47,37,47,42,36,99,84,55,30.44,30.30,2,0,5,0.00
2013-10-29,64,49,40,49,44,40,99,86,53,30.54,30.43,1,0,5,0.00
2013-10-30,63,54,48,59,53,48,99,96,81,30.49,30.31,1,0,4,0.06
2013-10-31,67,61,51,63,58,50,99,92,81,30.35,29.94,2,0,5,0.00
2013-11-1,71,65,56,66,62,56,99,90,73,29.94,29.74,6,1,17,0.12
2013-11-2,69,57,49,58,49,40,99,77,43,30.02,29.77,4,1,11,0.01
2013-11-3,56,49,41,43,33,20,81,56,25,30.63,30.02,5,2,17,0.00
2013-11-4,46,40,35,32,26,21,85,57,38,30.80,30.63,3,1,11,0.00
2013-11-5,57,49,36,49,43,32,89,79,65,30.77,30.63,1,0,4,0.00
2013-11-6,66,56,46,55,50,45,99,81,60,30.63,30.22,3,1,7,0.00
2013-11-7,63,55,46,59,48,23,99,80,41,30.22,30.00,6,2,17,0.00
2013-11-8,52,43,34,31,26,21,83,54,32,30.47,30.22,8,2,22,0.00
2013-11-9,55,43,30,34,29,26,92,60,34,30.51,30.17,2,0,7,0.00
2013-11-10,63,51,42,35,29,24,66,46,23,30.37,30.08,7,2,24,0.00
2013-11-11,58,48,35,38,31,26,79,53,30,30.47,30.15,2,1,9,0.00
2013-11-12,53,42,31,37,23,11,65,47,33,30.55,30.12,6,2,19,0.00
2013-11-13,43,34,28,23,18,14,72,53,33,30.63,30.54,6,2,17,0.00
2013-11-14,60,39,27,33,24,3,84,59,12,30.55,30.38,2,0,7,0.00
2013-11-15,58,43,30,43,32,25,93,69,30,30.44,30.34,2,0,4,0.00
2013-11-16,52,49,45,50,47,43,99,96,88,30.49,30.39,1,0,4,0.00
2013-11-17,64,56,50,59,54,49,99,95,79,30.40,29.91,2,1,5,0.00
2013-11-18,69,59,51,64,39,19,99,56,17,30.07,29.83,12,2,25,0.00
2013-11-19,51,46,40,29,27,24,59,48,37,30.53,30.07,6,3,17,0.04
2013-11-20,46,38,31,30,26,23,91,63,46,30.73,30.52,2,1,9,0.00
2013-11-21,49,41,30,42,36,29,97,85,69,30.74,30.55,1,0,5,0.00
2013-11-22,61,52,45,56,48,42,99,89,71,30.55,30.14,2,0,7,0.00
2013-11-23,58,46,33,54,28,12,86,51,26,30.33,30.15,8,4,19,0.00
2013-11-24,33,28,24,12,8,-19,56,42,32,30.67,30.33,8,5,24,0.00
2013-11-25,40,29,20,15,11,8,67,48,27,30.74,30.51,3,1,9,0.00
2013-11-26,58,38,33,58,30,14,99,76,42,30.52,29.67,3,0,7,0.87
2013-11-27,58,40,31,58,36,16,99,87,53,30.17,29.63,8,4,26,0.76
2013-11-28,39,31,26,25,17,12,82,57,34,30.65,30.16,6,2,17,0.00
2013-11-29,44,33,21,28,22,15,96,69,40,30.86,30.62,4,1,11,0.00
2013-11-30,40,32,28,27,23,19,89,71,53,30.74,30.40,2,0,7,0.00
2013-12-1,50,35,24,36,30,23,99,83,47,30.40,30.04,2,0,7,0.00
2013-12-2,48,41,38,40,38,36,99,89,71,30.04,29.89,1,0,4,0.00
2013-12-3,54,42,34,40,37,33,99,84,48,30.01,29.89,1,0,4,0.00
2013-12-4,50,44,34,47,42,34,99,93,83,30.10,30.00,1,0,3,0.00
2013-12-5,63,54,46,58,53,46,99,96,82,30.10,29.94,2,1,7,0.00
2013-12-6,64,50,38,64,49,37,99,99,94,30.19,29.89,4,1,14,0.52
2013-12-7,45,38,32,38,32,23,99,77,60,30.56,30.12,4,2,12,0.12
2013-12-8,33,31,29,32,26,20,99,83,65,30.61,30.29,3,1,8,0.11
2013-12-9,39,34,32,38,34,32,99,99,93,30.31,30.04,2,0,6,0.59
2013-12-10,37,33,26,36,31,21,99,92,62,30.24,29.99,3,1,11,0.05
2013-12-11,44,31,23,27,21,17,97,70,40,30.43,30.24,4,1,10,0.07
2013-12-12,34,27,21,26,15,7,99,61,35,30.45,30.26,5,2,14,0.00
2013-12-13,44,32,22,26,18,14,86,58,30,30.34,30.23,4,1,16,0.04
2013-12-14,41,35,30,38,33,26,99,90,71,30.35,29.69,4,0,11,0.43
2013-12-15,49,38,29,39,31,22,99,78,55,29.96,29.63,8,2,20,0.00
2013-12-16,38,33,28,27,23,18,81,67,49,30.22,29.95,4,1,11,0.00
2013-12-17,36,34,32,30,28,24,88,78,72,30.20,29.96,2,1,6,0.00
2013-12-18,42,32,24,30,24,18,97,73,41,30.25,29.99,7,1,17,0.00
2013-12-19,62,39,23,34,28,21,98,70,27,30.23,30.08,2,0,8,0.00
2013-12-20,62,53,43,51,36,28,78,54,33,30.12,30.01,2,0,8,0.00
2013-12-21,76,61,54,56,51,45,97,72,49,30.03,29.91,3,1,10,0.00
2013-12-22,71,62,57,65,60,56,99,96,79,30.03,29.84,5,1,15,0.41
2013-12-23,61,54,40,61,51,30,99,90,65,30.24,29.94,5,1,17,0.32
2013-12-24,42,35,25,30,21,-14,80,58,40,30.47,30.20,8,3,21,0.00
2013-12-25,36,25,20,18,13,10,89,62,39,30.59,30.41,4,1,12,0.00
2013-12-26,46,31,21,27,23,18,94,75,44,30.42,30.24,3,0,11,0.00
2013-12-27,54,34,23,28,23,15,90,68,24,30.44,30.33,3,0,12,0.00
2013-12-28,63,41,28,36,28,22,88,65,25,30.34,30.12,2,0,7,0.02
2013-12-29,47,43,39,47,41,31,99,92,56,30.13,29.52,4,1,11,0.56
2013-12-30,46,38,33,43,32,20,99,78,58,30.21,29.81,5,1,15,0.00
2013-12-31,47,35,25,30,21,17,78,59,42,30.36,30.11,7,2,18,0.00
2014-1-1,48,34,24,33,26,19,99,76,46,30.44,30.15,2,0,7,0.00
2014-1-2,37,32,28,35,32,27,99,97,92,30.15,29.61,2,0,7,0.00